Weather History for Stanton, MN

Change the Weather History Date:

Friday, June 6, 2014

  Actual Average (KLVN) Record (KLVN)
Temperature  
Mean Temperature 71 °F -  
Max Temperature 84 °F 80 °F 94 °F (1979)
Min Temperature 58 °F 55 °F 44 °F (1951)
Cooling Degree Days 6    
Growing Degree Days 21 (Base 50)    
Moisture  
Dew Point 56 °F    
Average Humidity 62    
Maximum Humidity 91    
Minimum Humidity 29    
Precipitation  
Precipitation 0.00 in - - ()
Sea Level Pressure  
Sea Level Pressure 29.91 in    
Wind  
Wind Speed 2 mph (SE)    
Max Wind Speed 15 mph    
Max Gust Speed 20 mph    
Visibility 10 miles    
Events      
Averages and records for this station are not official NWS values.
T = Trace of Precipitation, MM = Missing Value Source: NWS Daily Summary

Daily Weather History Graph

Daily Weather History Graph

Search for Another Location

Airport:

Trip Planner

Search our weather history database for the weather conditions in past years. The results will help you decide how hot, cold, wet, or windy it might be!

Date:

Astronomy

Jun. 06, 2014 Rise Set
Actual Time 5:28 AM CDT 8:53 PM CDT
Civil Twilight 4:52 AM CDT 9:29 PM CDT
Nautical Twilight 4:04 AM CDT 10:17 PM CDT
Astronomical Twilight 3:04 AM CDT 11:17 PM CDT
Moon 1:58 PM CDT (6/6) 1:36 AM CDT (6/6)
Length of Visible Light 16h 37m
Length of Day
15h 25m
First Quarter, 58% of the Moon is Illuminated
Jun 6
First Quarter
Jun 12
Full
Jun 19
Last Quarter
Jun 27
New
Jul 5
First Quarter

Hourly Weather History & Observations

Time (CDT) Temp. Heat Index Dew Point Humidity Pressure Visibility Wind Dir Wind Speed Gust Speed Precip Events Conditions
12:12 AM 60.8 °F - 56.5 °F 86% 29.89 in 10.0 mi Calm Calm - N/A   Scattered Clouds
12:32 AM 60.6 °F - 56.3 °F 86% 29.90 in 10.0 mi Calm Calm - N/A   Scattered Clouds
12:52 AM 59.4 °F - 55.8 °F 88% 29.89 in 10.0 mi Calm Calm - N/A   Clear
1:12 AM 59.4 °F - 56.1 °F 89% 29.89 in 10.0 mi Calm Calm - N/A   Clear
1:32 AM 58.5 °F - 55.4 °F 90% 29.89 in 10.0 mi Calm Calm - N/A   Clear
1:52 AM 58.1 °F - 55.4 °F 91% 29.89 in 10.0 mi Calm Calm - N/A   Clear
2:12 AM 58.6 °F - 55.4 °F 89% 29.89 in 10.0 mi Calm Calm - N/A   Clear
2:32 AM 59.0 °F - 55.6 °F 88% 29.89 in 10.0 mi Calm Calm - N/A   Clear
2:52 AM 58.3 °F - 55.4 °F 90% 29.89 in 10.0 mi Calm Calm - N/A   Clear
3:12 AM 59.7 °F - 56.1 °F 88% 29.89 in 10.0 mi Calm Calm - N/A   Clear
3:32 AM 61.2 °F - 55.8 °F 82% 29.89 in 10.0 mi South 3.5 mph - N/A   Clear
3:52 AM 61.0 °F - 55.8 °F 83% 29.89 in 10.0 mi Calm Calm - N/A   Clear
4:12 AM 59.4 °F - 55.2 °F 86% 29.89 in 10.0 mi SSW 3.5 mph - N/A   Clear
4:32 AM 59.2 °F - 55.4 °F 87% 29.89 in 10.0 mi Calm Calm - N/A   Clear
4:52 AM 59.7 °F - 55.9 °F 87% 29.90 in 10.0 mi Calm Calm - N/A   Clear
5:12 AM 59.4 °F - 55.8 °F 88% 29.90 in 10.0 mi South 3.5 mph - N/A   Clear
5:32 AM 59.5 °F - 56.3 °F 89% 29.91 in 7.0 mi SSW 3.5 mph - N/A   Clear
5:52 AM 59.4 °F - 56.1 °F 89% 29.91 in 7.0 mi South 3.5 mph - N/A   Clear
6:12 AM 59.5 °F - 56.7 °F 90% 29.91 in 7.0 mi South 4.6 mph - N/A   Clear
6:32 AM 60.8 °F - 57.6 °F 89% 29.91 in 5.0 mi SSW 3.5 mph - N/A   Clear
6:52 AM 62.4 °F - 59.0 °F 89% 29.92 in 5.0 mi SSW 5.8 mph - N/A   Clear
7:11 AM 63.7 °F - 59.9 °F 87% 29.92 in 7.0 mi SSW 6.9 mph - N/A   Clear
7:32 AM 65.1 °F - 60.8 °F 86% 29.93 in 7.0 mi SSW 5.8 mph - N/A   Clear
7:52 AM 66.4 °F - 61.5 °F 84% 29.93 in 7.0 mi SW 3.5 mph - N/A   Clear
8:12 AM 68.5 °F - 62.4 °F 81% 29.93 in 10.0 mi West 3.5 mph - N/A   Clear
8:32 AM 69.8 °F - 62.6 °F 78% 29.93 in 10.0 mi WNW 3.5 mph - N/A   Clear
8:52 AM 70.5 °F - 62.8 °F 76% 29.93 in 10.0 mi West 3.5 mph - N/A   Clear
9:12 AM 71.2 °F - 62.4 °F 74% 29.94 in 10.0 mi WSW 3.5 mph - N/A   Clear
9:32 AM 72.5 °F - 62.4 °F 71% 29.93 in 10.0 mi Calm Calm - N/A   Clear
10:52 AM 76.6 °F - 60.6 °F 58% 29.93 in 10.0 mi ENE 3.5 mph - N/A   Clear
11:12 AM 77.0 °F - 59.4 °F 54% 29.93 in 10.0 mi Calm Calm - N/A   Clear
11:32 AM 78.1 °F - 58.8 °F 51% 29.93 in 10.0 mi Calm Calm - N/A   Clear
11:52 AM 78.6 °F - 58.5 °F 50% 29.93 in 10.0 mi Calm Calm - N/A   Clear
12:12 PM 79.3 °F - 57.2 °F 47% 29.93 in 10.0 mi SSE 3.5 mph - N/A   Clear
12:32 PM 79.5 °F - 57.0 °F 46% 29.92 in 10.0 mi Calm Calm - N/A   Clear
12:52 PM 80.6 °F 80.5 °F 55.8 °F 42% 29.91 in 10.0 mi Calm Calm - N/A   Clear
1:12 PM 81.3 °F - 50.7 °F 34% 29.91 in 10.0 mi Calm Calm - N/A   Clear
1:32 PM 81.7 °F - 52.5 °F 36% 29.92 in 10.0 mi South 3.5 mph - N/A   Scattered Clouds
1:51 PM 81.7 °F 80.9 °F 53.1 °F 37% 29.91 in 10.0 mi Calm Calm - N/A   Scattered Clouds
2:12 PM 80.8 °F - 51.8 °F 36% 29.92 in 10.0 mi Calm Calm - N/A   Clear
2:32 PM 81.3 °F - 50.5 °F 34% 29.92 in 10.0 mi Calm Calm - N/A   Mostly Cloudy
2:52 PM 81.7 °F 80.9 °F 53.1 °F 37% 29.92 in 10.0 mi ESE 4.6 mph - N/A   Mostly Cloudy
3:12 PM 82.9 °F - 49.1 °F 31% 29.92 in 10.0 mi Calm Calm - N/A   Scattered Clouds
3:32 PM 84.0 °F - 51.1 °F 32% 29.92 in 10.0 mi SW 4.6 mph - N/A   Scattered Clouds
4:12 PM 84.0 °F - 51.1 °F 32% 29.90 in 10.0 mi NE 3.5 mph - N/A   Clear
4:32 PM 82.8 °F - 49.8 °F 32% 29.90 in 10.0 mi Calm Calm - N/A   Scattered Clouds
4:52 PM 83.7 °F - 48.7 °F 30% 29.89 in 10.0 mi SSE 3.5 mph - N/A   Clear
5:12 PM 84.2 °F - 49.1 °F 29% 29.88 in 10.0 mi Calm Calm - N/A   Clear
5:32 PM 83.8 °F - 51.1 °F 32% 29.88 in 10.0 mi Calm Calm - N/A   Clear
5:52 PM 84.2 °F - 50.2 °F 31% 29.88 in 10.0 mi Calm Calm - N/A   Clear
6:12 PM 83.8 °F - 50.7 °F 32% 29.89 in 10.0 mi Calm Calm - N/A   Clear
6:32 PM 82.6 °F - 51.1 °F 33% 29.89 in 10.0 mi Calm Calm - N/A   Clear
6:52 PM 83.3 °F - 51.6 °F 33% 29.89 in 10.0 mi NNE 6.9 mph - N/A   Clear
7:12 PM 82.0 °F - 52.7 °F 36% 29.89 in 10.0 mi NE 3.5 mph - N/A   Clear
7:32 PM 78.8 °F - 55.8 °F 45% 29.89 in 10.0 mi East 3.5 mph - N/A   Clear
7:52 PM 77.7 °F - 55.9 °F 47% 29.91 in 10.0 mi NW 13.8 mph - N/A   Clear
8:12 PM 75.6 °F - 56.8 °F 52% 29.91 in 10.0 mi NNW 10.4 mph 16.1 mph N/A   Clear
8:32 PM 75.2 °F - 56.5 °F 52% 29.92 in 10.0 mi NNW 12.7 mph - N/A   Clear
8:52 PM 75.6 °F - 56.1 °F 51% 29.93 in 10.0 mi North 13.8 mph - N/A   Mostly Cloudy
9:12 PM 74.8 °F - 56.3 °F 52% 29.94 in 10.0 mi NNE 15.0 mph - N/A   Overcast
9:32 PM 73.9 °F - 56.7 °F 55% 29.95 in 10.0 mi North 11.5 mph 17.3 mph N/A   Overcast
9:53 PM 73.4 °F - 56.5 °F 55% 29.95 in 10.0 mi NE 12.7 mph 19.6 mph N/A   Overcast
10:12 PM 72.5 °F - 57.4 °F 59% 29.95 in 10.0 mi NE 10.4 mph 17.3 mph N/A   Scattered Clouds
10:32 PM 71.4 °F - 57.6 °F 62% 29.94 in 10.0 mi NE 8.1 mph - N/A   Scattered Clouds
10:53 PM 70.2 °F - 58.1 °F 65% 29.94 in 10.0 mi ENE 5.8 mph - N/A   Clear
11:12 PM 68.9 °F - 58.3 °F 69% 29.92 in 10.0 mi East 5.8 mph - N/A   Clear
11:32 PM 68.0 °F - 58.3 °F 71% 29.92 in 10.0 mi East 4.6 mph - N/A   Clear
11:52 PM 67.8 °F - 58.1 °F 71% 29.94 in 10.0 mi NE 3.5 mph - N/A   Clear